SAS935 EKCH-KSFO

Flight info

Callsign SAS935
Flight time N/A
Altitude 34000
Route GOLGA DCT RETKA DCT ISVIG/M080F340 DCT 67N010W/M081F360 70N020W 73N040W 73N060W/M080F380 DCT MEDPA/N0466F380 DCT 70N084W 65N098W 60N108W 55N113W/N0451F400 DCT WELLF DCT ONSET DCT EPH DCT RBL/N0464F410 DCT MRRLO BDEGA4
Aircraft A343/H-SDE2E3FGHIJ4J5M1RWXY/LB1D1

Departure

Time 2026-05-04 08:17
Airport Copenhagen Kastrup Airport (EKCH)

Arrival

Time N/A
Airport San Francisco International Airport (KSFO)
Time Latitude Longitude Altitude Speed Heading
2026-05-04 08:02 55.62505 12.65061 -7 ft 0 kts 268°
2026-05-04 08:10 55.62518 12.65198 26 ft 0 kts 179°
2026-05-04 08:14 55.62486 12.65199 22 ft 13 kts 179°
2026-05-04 08:14 55.62346 12.65205 20 ft 22 kts 180°
2026-05-04 08:14 55.62277 12.65061 20 ft 11 kts 288°
2026-05-04 08:16 55.61718 12.64079 23 ft 21 kts 175°
2026-05-04 08:16 55.61595 12.64025 27 ft 19 kts 216°
2026-05-04 08:16 55.61496 12.63876 26 ft 27 kts 220°
2026-05-04 08:17 55.61208 12.63427 28 ft 82 kts 221°
2026-05-04 08:17 55.60650 12.62565 26 ft 129 kts 221°
2026-05-04 08:17 55.59874 12.61372 107 ft 159 kts 223°
2026-05-04 08:17 55.59016 12.60200 644 ft 159 kts 221°
2026-05-04 08:19 55.57404 12.44307 4426 ft 239 kts 275°
2026-05-04 08:19 55.57690 12.41399 5258 ft 242 kts 288°
2026-05-04 08:20 55.58455 12.38737 6059 ft 247 kts 306°
2026-05-04 08:20 55.59776 12.36736 6813 ft 256 kts 324°
2026-05-04 08:20 55.61352 12.35203 7604 ft 259 kts 328°
2026-05-04 08:20 55.62973 12.33751 8362 ft 264 kts 328°
2026-05-04 08:21 55.64629 12.32279 9090 ft 269 kts 328°
2026-05-04 08:21 55.66311 12.30779 9811 ft 273 kts 327°
2026-05-04 08:21 55.68031 12.29238 10300 ft 284 kts 327°
2026-05-04 08:21 55.69824 12.27621 10624 ft 301 kts 328°
2026-05-04 08:22 55.71739 12.25895 10929 ft 317 kts 328°
2026-05-04 08:22 55.73744 12.24090 11303 ft 329 kts 328°
2026-05-04 08:24 55.88800 12.10487 15422 ft 360 kts 327°
2026-05-04 08:24 55.91039 12.08452 16002 ft 364 kts 327°
2026-05-04 08:24 55.93276 12.06416 16566 ft 367 kts 327°
2026-05-04 08:24 55.95563 12.04330 17156 ft 371 kts 327°
2026-05-04 08:25 55.97873 12.02221 17740 ft 375 kts 326°
2026-05-04 08:25 56.00205 12.00089 18311 ft 378 kts 327°
2026-05-04 08:25 56.02557 11.97936 18834 ft 381 kts 327°
2026-05-04 08:25 56.04924 11.95767 19352 ft 383 kts 327°
2026-05-04 08:26 56.07301 11.93585 19857 ft 386 kts 327°
2026-05-04 08:27 56.24453 11.77750 23156 ft 407 kts 326°
2026-05-04 08:28 56.26978 11.75405 23566 ft 410 kts 326°
2026-05-04 08:28 56.29520 11.73040 23965 ft 412 kts 327°
2026-05-04 08:28 56.32073 11.70668 24351 ft 414 kts 327°
2026-05-04 08:28 56.34588 11.68148 24711 ft 413 kts 322°
2026-05-04 08:29 56.36978 11.65279 25064 ft 413 kts 319°
2026-05-04 08:29 56.39305 11.62230 25413 ft 414 kts 317°
2026-05-04 08:29 56.41586 11.59149 25751 ft 416 kts 317°